When you browse on this site, cookies collect data to enhance your experience and personalize the content and advertising you see.
Visit our Privacy Policy to learn more. By continuing to use the site, you agree to this use of cookies and data.
  • In Romania
  • List of Countries
  • For 7 days
  • Water Temperature
  • Satellite Maps
  • Weather Map
  • Weather Widgets
  • user-avatar
    Login

    Hourly Weather Rintala

    Today, 18 February, Monday

    Time Temperature Precipitation Wind Pressure Humidity
    00:00 -9°C° 0 mm 3 mps 756 mmHg 88%
    01:00 -9°C° 0 mm 2 mps 757 mmHg 90%
    02:00 -10°C° 0 mm 2 mps 757 mmHg 92%
    03:00 -10°C° 0 mm 2 mps 758 mmHg 92%
    04:00 -9°C° 0 mm 1 mps 758 mmHg 92%
    05:00 -9°C° 0 mm 1 mps 758 mmHg 92%
    06:00 -10°C° 0 mm 1 mps 758 mmHg 91%
    07:00 -10°C° 0 mm 1 mps 758 mmHg 90%
    08:00 -10°C° 0 mm 0 mps 758 mmHg 89%
    09:00 -9°C° 0 mm 1 mps 758 mmHg 87%
    10:00 -8°C° 0 mm 2 mps 758 mmHg 84%
    11:00 -7°C° 0 mm 2 mps 758 mmHg 82%
    12:00 -7°C° 0 mm 3 mps 757 mmHg 81%
    13:00 -7°C° 0 mm 3 mps 756 mmHg 80%
    14:00 -7°C° 0 mm 4 mps 756 mmHg 79%
    15:00 -7°C° 0 mm 4 mps 755 mmHg 78%
    16:00 -6°C° 0 mm 5 mps 754 mmHg 77%
    17:00 -6°C° 0 mm 5 mps 753 mmHg 76%
    18:00 -6°C° 0 mm 5 mps 752 mmHg 79%
    19:00 -5°C° 0 mm 5 mps 751 mmHg 81%
    20:00 -5°C° 0 mm 5 mps 750 mmHg 84%
    21:00 -4°C° 0.1 mm 6 mps 749 mmHg 85%
    22:00 -3°C° 0.1 mm 6 mps 748 mmHg 87%
    23:00 -2°C° 0.1 mm 6 mps 747 mmHg 88%

    Tomorrow, 19 February, Tuesday

    Time Temperature Precipitation Wind Pressure Humidity
    00:00 -2°C° 0.1 mm 6 mps 747 mmHg 89%
    01:00 -1°C° 0.1 mm 6 mps 746 mmHg 90%
    02:00 -1°C° 0.1 mm 6 mps 745 mmHg 91%
    03:00 0°C° 0.1 mm 5 mps 745 mmHg 92%
    04:00 0°C° 0.1 mm 5 mps 744 mmHg 93%
    05:00 0°C° 0.1 mm 5 mps 744 mmHg 94%
    06:00 0°C° 0 mm 5 mps 743 mmHg 94%
    07:00 0°C° 0 mm 5 mps 743 mmHg 94%
    08:00 0°C° 0 mm 4 mps 743 mmHg 94%
    09:00 0°C° 0.1 mm 5 mps 743 mmHg 94%
    10:00 0°C° 0.1 mm 5 mps 742 mmHg 94%
    11:00 0°C° 0.1 mm 5 mps 742 mmHg 94%
    12:00 0°C° 0.3 mm 5 mps 742 mmHg 94%
    13:00 0°C° 0.3 mm 4 mps 741 mmHg 94%
    14:00 0°C° 0.3 mm 4 mps 741 mmHg 94%
    15:00 0°C° 1 mm 4 mps 740 mmHg 95%
    16:00 0°C° 1 mm 4 mps 740 mmHg 95%
    17:00 0°C° 1 mm 4 mps 739 mmHg 95%
    18:00 0°C° 0.9 mm 4 mps 738 mmHg 95%
    19:00 +1°C° 0.9 mm 3 mps 738 mmHg 95%
    20:00 +1°C° 0.9 mm 3 mps 737 mmHg 95%
    21:00 0°C° 0.2 mm 3 mps 737 mmHg 96%
    22:00 0°C° 0.2 mm 3 mps 736 mmHg 96%
    23:00 0°C° 0.2 mm 3 mps 736 mmHg 96%

    Day after tomorrow, 20 February, Wednesday

    Time Temperature Precipitation Wind Pressure Humidity
    00:00 0°C° 0 mm 3 mps 735 mmHg 97%
    01:00 +1°C° 0 mm 2 mps 735 mmHg 97%
    02:00 +1°C° 0 mm 2 mps 734 mmHg 97%
    03:00 +1°C° 0.1 mm 2 mps 734 mmHg 97%
    04:00 +1°C° 0.1 mm 2 mps 734 mmHg 96%
    05:00 +1°C° 0.1 mm 2 mps 733 mmHg 96%
    06:00 0°C° 0 mm 3 mps 733 mmHg 96%
    07:00 -1°C° 0 mm 3 mps 733 mmHg 96%
    08:00 -1°C° 0 mm 3 mps 733 mmHg 95%
    09:00 0°C° 0.1 mm 3 mps 733 mmHg 95%
    10:00 0°C° 0.1 mm 3 mps 733 mmHg 94%
    11:00 0°C° 0.1 mm 3 mps 733 mmHg 93%
    12:00 0°C° 0 mm 3 mps 733 mmHg 92%
    13:00 0°C° 0 mm 3 mps 733 mmHg 91%
    14:00 0°C° 0 mm 3 mps 733 mmHg 91%
    15:00 0°C° 0.1 mm 3 mps 733 mmHg 91%
    16:00 0°C° 0.1 mm 3 mps 734 mmHg 92%
    17:00 -1°C° 0.1 mm 2 mps 734 mmHg 92%
    18:00 -2°C° 0.2 mm 4 mps 735 mmHg 90%
    19:00 -4°C° 0.2 mm 5 mps 736 mmHg 87%
    20:00 -5°C° 0.2 mm 6 mps 736 mmHg 84%
    21:00 -7°C° 0.1 mm 7 mps 737 mmHg 84%
    22:00 -8°C° 0.1 mm 7 mps 738 mmHg 83%
    23:00 -8°C° 0.1 mm 7 mps 739 mmHg 82%

    21 February, Thursday

    Time Temperature Precipitation Wind Pressure Humidity
    00:00 -9°C° 0.2 mm 7 mps 741 mmHg 81%
    01:00 -11°C° 0.2 mm 7 mps 742 mmHg 80%
    02:00 -12°C° 0.2 mm 7 mps 743 mmHg 79%
    03:00 -12°C° 0.1 mm 7 mps 745 mmHg 77%
    04:00 -12°C° 0.1 mm 7 mps 746 mmHg 75%
    05:00 -12°C° 0.1 mm 7 mps 747 mmHg 73%
    06:00 -13°C° 0 mm 7 mps 748 mmHg 73%
    07:00 -13°C° 0 mm 7 mps 750 mmHg 72%
    08:00 -12°C° 0 mm 6 mps 751 mmHg 72%
    09:00 -12°C° 0 mm 6 mps 752 mmHg 72%
    10:00 -12°C° 0 mm 6 mps 753 mmHg 73%
    11:00 -13°C° 0 mm 5 mps 754 mmHg 73%
    12:00 -12°C° 0 mm 5 mps 755 mmHg 71%
    13:00 -12°C° 0 mm 5 mps 756 mmHg 70%
    14:00 -11°C° 0 mm 5 mps 757 mmHg 68%
    15:00 -11°C° 0 mm 4 mps 757 mmHg 70%
    16:00 -11°C° 0 mm 4 mps 758 mmHg 72%
    17:00 -12°C° 0 mm 3 mps 759 mmHg 73%
    18:00 -12°C° 0 mm 3 mps 760 mmHg 76%
    19:00 -12°C° 0 mm 3 mps 760 mmHg 78%
    20:00 -13°C° 0 mm 3 mps 761 mmHg 80%
    21:00 -13°C° 0 mm 3 mps 762 mmHg 81%
    22:00 -12°C° 0 mm 2 mps 762 mmHg 83%
    23:00 -13°C° 0 mm 2 mps 763 mmHg 85%

    22 February, Friday

    Time Temperature Precipitation Wind Pressure Humidity
    00:00 -13°C° 0 mm 2 mps 763 mmHg 86%
    01:00 -13°C° 0 mm 2 mps 764 mmHg 87%
    02:00 -14°C° 0 mm 2 mps 764 mmHg 88%
    03:00 -14°C° 0 mm 2 mps 765 mmHg 88%
    04:00 -14°C° 0 mm 2 mps 765 mmHg 88%
    05:00 -14°C° 0 mm 2 mps 766 mmHg 88%
    06:00 -12°C° 0 mm 1 mps 766 mmHg 87%
    07:00 -12°C° 0 mm 1 mps 767 mmHg 87%
    08:00 -12°C° 0 mm 1 mps 768 mmHg 86%
    09:00 -11°C° 0 mm 1 mps 768 mmHg 81%
    10:00 -10°C° 0 mm 1 mps 768 mmHg 77%
    11:00 -9°C° 0 mm 1 mps 769 mmHg 72%
    12:00 -8°C° 0 mm 1 mps 769 mmHg 71%
    13:00 -7°C° 0 mm 1 mps 769 mmHg 70%
    14:00 -7°C° 0 mm 1 mps 769 mmHg 69%
    15:00 -7°C° 0 mm 1 mps 769 mmHg 73%
    16:00 -9°C° 0 mm 2 mps 769 mmHg 77%
    17:00 -10°C° 0 mm 2 mps 769 mmHg 82%
    18:00 -10°C° 0 mm 2 mps 768 mmHg 80%
    19:00 -12°C° 0 mm 3 mps 768 mmHg 79%
    20:00 -12°C° 0 mm 3 mps 768 mmHg 77%
    21:00 -11°C° 0 mm 4 mps 767 mmHg 79%
    22:00 -10°C° 0 mm 4 mps 766 mmHg 80%
    23:00 -10°C° 0 mm 5 mps 765 mmHg 81%

    23 February, Saturday

    Time Temperature Precipitation Wind Pressure Humidity
    00:00 -8°C° 0.5 mm 5 mps 765 mmHg 84%
    01:00 -8°C° 0.5 mm 5 mps 764 mmHg 87%
    02:00 -9°C° 0.5 mm 6 mps 763 mmHg 90%
    03:00 -8°C° 0.4 mm 6 mps 762 mmHg 90%
    04:00 -6°C° 0.4 mm 5 mps 761 mmHg 89%
    05:00 -6°C° 0.4 mm 5 mps 760 mmHg 89%
    06:00 -5°C° 0.4 mm 5 mps 759 mmHg 91%
    07:00 -5°C° 0.4 mm 5 mps 759 mmHg 92%
    08:00 -3°C° 0.4 mm 4 mps 758 mmHg 93%
    09:00 -2°C° 0.1 mm 4 mps 758 mmHg 93%
    10:00 -1°C° 0.1 mm 4 mps 758 mmHg 94%
    11:00 0°C° 0.1 mm 3 mps 758 mmHg 94%
    12:00 0°C° 0 mm 3 mps 758 mmHg 95%
    13:00 +2°C° 0 mm 2 mps 758 mmHg 96%
    14:00 +2°C° 0 mm 2 mps 758 mmHg 97%
    15:00 +2°C° 0 mm 2 mps 757 mmHg 97%
    16:00 +1°C° 0 mm 2 mps 757 mmHg 97%
    17:00 +1°C° 0 mm 2 mps 757 mmHg 97%
    18:00 0°C° 0.2 mm 3 mps 757 mmHg 97%
    19:00 0°C° 0.2 mm 3 mps 756 mmHg 97%
    20:00 0°C° 0.2 mm 3 mps 756 mmHg 97%
    21:00 0°C° 0.1 mm 3 mps 755 mmHg 96%
    22:00 0°C° 0.1 mm 4 mps 755 mmHg 96%
    23:00 0°C° 0.1 mm 4 mps 754 mmHg 96%
    Show more